Location: Newark
(43.0000°N, 1.6781°W)
Time: 08:44:23
(UTC+00:00)

AO-7 - Pass Details

Date: 14 December 2022
Orbit: 1440 x 1459 km, 101.9° (Epoch: 28 January)

Event Time Altitude Azimuth Distance (km) Brightness Sun altitude
Rises 05:14:56 0° 16° (NNE) 4,547 ? -23.8°
Reaches altitude 10° 05:17:42 10° 16° (NNE) 3,567 ? -23.3°
Maximum altitude 05:26:02 80° 292° (WNW) 1,470 ? -21.8°
Drops below altitude 10° 05:34:20 10° 206° (SSW) 3,562 ? -20.3°
Sets 05:37:06 0° 205° (SSW) 4,540 ? -19.8°
